Flag for Switzerland Weather past 2 weeks in Meyrin, Geneva, Switzerland

Now
43 °F

Clear.


Feels Like: 43 °F
Forecast: 30 / 57 °F
Wind: 2 mph from North

Location: Geneva Cointrin Airport

Current Time: Mar 27, 2015 at 10:24:58 PM

Latest Report: Mar 27, 2015 at 9:50 PM


Visibility: 10 mi

Pressure: 30.24 "Hg

Humidity: 66%

Dew point: 32 °F

Location of MeyrinLocation

Historic Weather in Meyrin — Graph

°F

Meyrin temperature yesterday

Maximum temperature yesterday: 48 °F (at 12:50 PM)
Minimum temperature yesterday: 41 °F (at 12:20 AM)
Average temperature yesterday: 45 °F

Past Weeks' High & Low Weather Summary

 TemperatureHumidityPressure
High64 °F (Mar 18, 2:50 PM)100% (Mar 16, 7:20 AM)30.27 "Hg (Mar 16, 7:20 AM)
Low28 °F (Mar 13, 4:50 AM)32% (Mar 18, 4:20 PM)29.62 "Hg (Mar 25, 3:20 AM)
Average46 °F70%30.03 "Hg
* Reported Mar 12 9:20 PM — Mar 27 9:20 PM, Meyrin, Weather by CustomWeather, © 2015

Note: Actual official high and low records may vary slightly from our data, if they occured in-between our weather recording intervals... More about our weather records

Advertising

Meyrin weather history for previous 24 hours

 ConditionsComfort  
Time TempWeatherWind HumidityBarometerVisibility
9:20 PM
Fri, Mar 27
45 °FClear.3 mph57%30.24 "Hg10 mi
8:50 PM45 °FPassing clouds.5 mph57%30.24 "HgN/A
8:20 PM48 °FPassing clouds.6 mph50%30.24 "HgN/A
7:50 PM48 °FPassing clouds.6 mph50%30.21 "HgN/A
7:20 PM48 °FClear.3 mph50%30.21 "Hg10 mi
6:50 PM50 °FPassing clouds.5 mph47%30.21 "HgN/A
6:20 PM52 °FPassing clouds.5 mph44%30.18 "HgN/A
5:50 PM52 °FScattered clouds.7 mph44%30.18 "HgN/A
5:20 PM54 °FPartly sunny.7 mph41%30.18 "HgN/A
4:50 PM55 °FPartly sunny.7 mph41%30.18 "HgN/A
4:20 PM55 °FPartly sunny.5 mph36%30.18 "HgN/A
3:50 PM55 °FPartly sunny.5 mph38%30.15 "HgN/A
3:20 PM55 °FScattered clouds.7 mph38%30.15 "HgN/A
2:50 PM55 °FPartly sunny.7 mph41%30.15 "HgN/A
2:20 PM55 °FScattered clouds.5 mph38%30.15 "HgN/A
1:50 PM54 °FPassing clouds.6 mph41%30.15 "HgN/A
1:20 PM52 °FScattered clouds.7 mph47%30.15 "HgN/A
12:50 PM54 °FScattered clouds.5 mph41%30.15 "HgN/A
12:20 PM50 °FScattered clouds.7 mph54%30.15 "HgN/A
11:50 AM54 °FScattered showers. Scattered clouds.3 mph41%30.15 "HgN/A
11:20 AM50 °FScattered clouds.5 mph50%30.15 "HgN/A
10:50 AM48 °FScattered clouds.6 mph58%30.15 "HgN/A
10:20 AM52 °FScattered showers. Scattered clouds.6 mph54%30.15 "HgN/A
9:50 AM50 °FScattered showers. Scattered clouds.2 mph62%30.12 "HgN/A
9:20 AM48 °FScattered clouds.3 mph62%30.12 "HgN/A
8:50 AM48 °FScattered clouds.3 mph62%30.12 "HgN/A
8:20 AM48 °FScattered showers. Scattered clouds.3 mph76%30.09 "HgN/A
7:50 AM45 °FScattered clouds.5 mph81%30.09 "HgN/A
7:20 AM43 °FScattered clouds.5 mph87%30.09 "HgN/A
6:50 AM41 °FBroken clouds.6 mph100%30.07 "HgN/A
6:20 AM43 °FScattered showers. Passing clouds.3 mph87%30.07 "HgN/A
5:50 AM43 °FSprinkles. Passing clouds.2 mph81%30.04 "HgN/A
5:20 AM43 °FSprinkles. Passing clouds.6 mph81%30.04 "HgN/A
4:50 AM41 °FScattered showers. Partly cloudy.2 mph87%30.04 "HgN/A
4:20 AM39 °FPartly cloudy.5 mph93%30.01 "HgN/A
3:50 AM41 °FPassing clouds.3 mph87%30.01 "HgN/A
3:20 AM43 °FPassing clouds.7 mph81%30.01 "HgN/A
2:50 AM45 °FPassing clouds.10 mph76%30.01 "HgN/A
1:50 AM45 °FPassing clouds.3 mph76%30.01 "HgN/A
1:20 AM45 °FPassing clouds.6 mph76%30.01 "HgN/A
12:50 AM45 °FLight rain. Passing clouds.6 mph81%29.98 "HgN/A
12:20 AM45 °FLight rain. Passing clouds.7 mph76%29.98 "HgN/A
11:50 PM
Thu, Mar 26
45 °FLight rain. Passing clouds.7 mph76%29.98 "HgN/A
11:20 PM46 °FLight rain. Passing clouds.7 mph66%29.98 "HgN/A
10:50 PM46 °FPassing clouds.5 mph66%29.95 "HgN/A
10:20 PM46 °FPassing clouds.6 mph66%29.95 "HgN/A
Weather by CustomWeather, © 2015

See weather overviewHow to use our weather pages